Overview Statistics Trail Chart Weather Telemetry Raw packets
 

This is the latest recevied weather packets stored in our database for station/object KI4NG. If no packets are shown the sender has not sent any weather packets the latest 10 day(s).

<< 94 95 96 97 98 99 100 >>
Time Temp. Humidity Pressure Rain* Wind** Luminosity Snow
1787919968 18.33° C 99% 1020.2 hPa 0 mm - 55 W/m² -
1787919668 18.89° C 99% 1020 hPa 0 mm - 49 W/m² -
1787919363 18.33° C 99% 1020.1 hPa 0 mm - 44 W/m² -
1787919058 18.89° C 99% 1020 hPa 0 mm - 33 W/m² -
1787918753 18.33° C 99% 1020.2 hPa 0 mm - 33 W/m² -
1787918452 18.33° C 99% 1020.2 hPa 0 mm - 28 W/m² -
1787918150 18.89° C 99% 1020 hPa 0 mm - 25 W/m² -
1787917845 18.89° C 99% 1020 hPa 0 mm - 29 W/m² -
1787917542 18.89° C 99% 1019.6 hPa 0 mm - 28 W/m² -
1787917238 18.89° C 99% 1019.7 hPa 0 mm - 23 W/m² -
1787916932 18.89° C 99% 1019.6 hPa 0 mm - 15 W/m² -
1787916632 18.89° C 99% 1019.5 hPa 0 mm - 12 W/m² -
1787916326 18.89° C 99% 1019.3 hPa 0 mm - 10 W/m² -
1787916021 18.33° C 99% 1019.5 hPa 0 mm - 4 W/m² -
1787915716 18.33° C 99% 1019.4 hPa 0 mm - 3 W/m² -
1787915412 18.33° C 99% 1019.2 hPa 0 mm - 1 W/m² -
1787915111 18.33° C 99% 1019 hPa 0 mm - 0 W/m² -
1787914811 18.33° C 99% 1019 hPa 0 mm - 0 W/m² -
1787914510 18.33° C 99% 1019.2 hPa 0 mm - 0 W/m² -
1787914205 18.33° C 99% 1019.1 hPa 0 mm - 0 W/m² -
1787913900 18.33° C 99% 1019 hPa 0 mm - 0 W/m² -
1787913599 18.33° C 99% 1018.9 hPa 0 mm - 0 W/m² -
1787913299 18.33° C 99% 1018.8 hPa 0 mm - 0 W/m² -
1787912998 18.33° C 99% 1018.8 hPa 0 mm - 0 W/m² -
1787912697 18.33° C 99% 1018.7 hPa 0 mm - 0 W/m² -

* Rain latest hour (hover to see other rain measurements)
** Current wind speed in m/s (hover to see current wind gust speed)